Tracking 34305 objects as of 6-Jun-2026
HD Live streaming from Space Station
objects crossing your sky now

STARLINK-37571

Track STARLINK-37571 now!
10-day predictions
STARLINK-37571 is classified as:


NORAD ID: 69043
Int'l Code: 2026-101U
Perigee: 425.5 km
Apogee: 426.9 km
Inclination: 97.3 °
Period: 93.0 minutes
Semi major axis: 6797 km
RCS: Unknown
Launch date: May 6, 2026
Source: United States (US)
Launch site: AIR FORCE WESTERN TEST RANGE (AFWTR)
Your satellite tracking list
Your tracking list is empty




NASA's NSSDC Master Catalog

Two Line Element Set (TLE):
1 69043U 26101U   26156.33801666  .00044371  00000-0  81253-3 0  9996
2 69043  97.2824  11.3073 0000966  90.2210 269.9152 15.49202433  4759
Source of the keplerian elements: AFSPC